Wetbulb
52.81 52.69 52.70 52.72 52.67 52.73 52.99 53.07 53.17 53.49 53.70 53.93 53.95 53.15 52.92 52.91 53.17 51.95 46.79 51.31 53.13 56.25 56.95 55.72 53.22 54.25 54.92 55.18 54.90 53.93 50.04 46.93 48.47 48.68 50.56 53.93 53.38 55.55 56.66 57.38 60.44 61.67 61.50 62.57 65.23
52.53 52.53 52.52 52.45 52.33 52.37 52.63 52.79 52.98 53.17 53.41 53.66 53.40 52.98 52.76 51.89 49.18 45.76 50.40 54.47 54.53 54.62 51.83 52.15 49.63 51.80 52.73 53.86 55.11 51.83 49.61 49.72 52.81 53.21 52.00 53.37 52.55 53.83 55.00 56.51 58.53 60.41 61.46 63.35 63.83
52.09 52.22 52.31 52.19 52.02 52.20 52.59 52.67 52.63 52.74 53.08 53.07 52.44 52.49 52.50 49.07 45.48 44.43 52.05 54.04 53.48 52.50 52.17 53.17 52.66 49.52 49.59 53.06 53.45 51.16 48.94 53.56 52.38 53.71 54.17 52.95 51.58 53.05 54.25 54.03 58.35 59.27 60.59 60.62 60.64
51.32 51.59 51.74 51.79 51.56 51.81 51.94 52.12 52.30 52.56 52.74 51.68 51.78 51.98 51.59 41.99 32.33 43.32 51.99 52.38 52.01 50.20 51.87 50.81 48.92 46.06 47.23 48.27 53.11 47.46 50.38 51.76 53.98 52.95 50.98 51.17 53.00 51.79 53.70 55.53 57.37 58.71 62.38 60.88 60.35
51.04 51.20 51.29 51.21 51.13 51.66 51.92 52.19 52.38 52.36 51.48 51.05 51.68 51.46 44.73 36.94 36.82 46.72 50.00 49.33 48.23 47.45 47.39 47.99 45.98 45.25 44.82 45.56 48.11 48.89 50.04 50.50 52.07 51.36 51.18 50.87 51.35 52.50 52.60 55.53 55.64 57.97 59.77 61.16 61.44
50.91 50.86 50.86 50.71 50.94 51.55 52.05 52.35 51.94 50.94 50.48 51.28 51.35 49.51 41.32 32.73 45.05 47.27 46.55 46.84 45.65 45.78 45.14 46.87 44.25 45.94 44.53 43.96 44.38 45.42 46.86 50.83 51.59 50.88 50.90 49.13 51.26 50.26 53.72 55.99 54.76 56.72 58.06 60.71 61.99
50.30 50.55 50.63 50.62 51.17 51.80 51.90 50.77 50.37 49.95 50.78 51.17 50.53 46.53 38.68 36.63 45.74 48.01 45.56 44.29 45.41 45.93 41.85 44.81 46.22 45.50 45.55 42.37 45.86 44.45 44.23 49.12 50.64 50.67 49.65 51.34 48.86 47.89 55.33 55.16 55.60 57.52 58.77 59.01 61.54
50.24 50.41 50.38 51.07 51.44 51.15 50.18 49.70 48.68 50.76 50.54 50.79 48.68 44.08 35.86 43.73 48.59 44.96 45.17 43.85 45.74 46.86 43.80 46.39 47.15 45.40 44.50 46.18 43.76 42.58 43.67 42.15 48.95 50.51 50.77 50.24 45.86 52.58 55.04 53.86 54.32 56.31 58.16 59.34 59.44
50.65 50.29 50.95 51.22 51.03 49.54 49.13 47.95 47.95 49.39 49.33 49.49 44.75 41.75 34.91 46.05 40.78 43.95 44.45 41.50 43.39 43.61 45.76 46.06 45.26 42.97 43.52 38.65 36.09 39.56 35.70 38.98 43.40 49.61 49.81 48.26 46.32 52.52 55.45 53.95 53.18 54.98 56.37 58.22 60.21
50.73 50.45 50.79 51.08 49.73 48.38 47.86 45.81 45.19 45.03 43.98 46.23 41.92 35.78 38.31 35.72 40.47 42.15 45.14 43.19 39.93 40.94 39.40 41.64 41.76 38.41 38.48 35.69 28.91 31.79 33.78 36.86 39.34 43.32 44.97 46.28 46.19 51.17 52.50 53.05 52.69 54.48 55.68 56.44 58.33
51.04 51.12 50.72 50.74 48.96 47.58 44.78 42.62 38.76 37.54 38.94 33.81 33.81 32.91 36.07 40.85 42.39 41.31 43.24 40.73 39.81 37.25 31.79 35.92 32.14 29.43 32.02 35.19 35.91 35.93 34.23 34.16 37.99 41.24 38.32 40.75 43.72 48.49 51.53 52.10 51.20 52.88 54.22 55.42 56.97
51.95 51.57 50.94 50.31 47.66 46.46 44.31 38.43 37.47 38.54 31.36 36.31 36.05 36.18 38.80 39.90 34.99 38.91 43.58 36.17 34.69 29.75 32.98 30.77 27.66 31.10 32.71 33.56 33.82 33.72 32.49 32.83 36.76 38.98 38.48 38.80 39.28 43.91 47.75 50.42 52.26 52.75 53.11 53.50 54.98
51.80 51.75 50.80 49.75 45.52 43.57 41.32 39.60 43.27 42.45 31.74 32.09 34.65 35.40 37.86 39.20 34.14 35.49 39.97 36.28 31.94 29.63 29.32 26.92 28.88 32.73 29.91 29.14 28.43 30.04 29.91 30.94 32.08 36.76 38.72 37.23 35.71 38.82 43.94 47.15 50.26 52.29 53.83 54.83 54.09
51.70 51.26 49.52 46.89 42.22 40.78 38.73 42.31 41.56 39.59 27.36 26.76 31.90 36.11 37.48 37.01 31.66 38.93 40.80 36.46 32.74 28.34 29.43 28.02 30.22 29.78 29.15 26.55 28.91 25.49 31.93 32.41 32.51 31.73 28.77 37.47 27.61 38.10 41.43 42.68 46.52 49.41 51.76 53.27 54.28
51.58 49.43 46.81 45.11 41.24 39.48 40.54 43.17 40.77 36.95 14.85 28.30 30.71 39.46 37.05 32.53 33.58 34.60 40.65 36.81 29.60 29.14 29.72 26.10 27.76 28.11 27.23 27.97 29.99 26.70 33.85 32.36 32.22 30.78 30.31 32.33 28.90 34.08 39.27 39.06 43.06 46.79 50.20 52.81 54.34
51.26 48.64 45.96 43.72 43.73 42.21 43.07 39.63 37.36 28.07 14.91 21.89 28.99 28.85 29.39 31.40 31.90 34.77 34.86 37.93 36.33 30.86 31.00 29.63 33.70 31.55 30.78 32.21 32.81 32.99 30.36 30.09 30.93 29.30 22.16 29.28 30.01 31.52 35.30 39.41 42.90 46.58 48.56 51.09 53.37
50.40 46.77 44.20 43.30 39.45 42.82 39.56 36.32 27.36 18.21 23.15 23.48 24.05 27.57 26.91 26.26 27.91 29.78 27.86 27.66 25.39 21.44 22.35 26.61 27.29 31.42 33.09 28.87 32.40 30.92 26.44 18.84 17.84 18.74 18.18 31.25 28.88 32.05 38.12 40.87 43.52 44.16 47.25 50.03 52.41
47.80 45.07 43.07 42.34 41.95 39.49 36.76 32.08 18.37 14.79 17.64 25.47 26.28 26.56 22.47 24.47 26.29 25.99 25.98 23.81 27.40 25.95 23.89 20.76 19.26 27.17 32.12 29.79 26.99 27.22 26.66 19.92 12.89 16.15 22.06 28.97 24.51 32.07 39.81 42.12 44.31 44.20 45.72 47.34 49.94
45.19 41.12 41.60 42.45 39.98 38.81 33.87 23.67 22.41 19.46 24.77 24.10 26.01 20.10 19.71 20.33 23.10 24.22 22.22 22.39 25.66 29.12 20.01 20.24 20.60 30.29 30.31 32.22 30.88 26.28 22.86 29.58 22.23 23.51 20.32 25.91 30.41 35.93 39.14 39.55 41.60 43.03 43.75 45.62 47.45
40.18 39.01 38.76 41.84 39.11 36.33 31.35 24.44 21.68 26.03 27.71 27.37 19.68 21.17 17.79 19.27 20.71 21.43 19.86 25.08 26.04 30.16 31.23 23.03 17.94 27.19 30.17 31.82 32.11 28.57 30.50 22.24 23.79 13.29 13.15 23.09 25.89 28.09 33.56 36.49 39.59 41.12 42.79 43.87 43.77
38.73 34.85 38.55 40.06 37.43 33.18 25.40 21.74 20.21 25.71 29.17 26.21 23.42 21.87 22.07 20.57 18.83 19.44 20.14 24.25 27.28 29.26 31.03 25.53 22.64 23.20 28.87 27.34 26.14 26.58 24.38 24.72 26.04 23.71 17.05 16.93 24.37 34.79 34.15 35.87 36.37 38.51 40.44 42.14 42.38
35.83 30.94 36.93 37.33 28.73 21.34 23.00 18.65 25.27 26.39 27.94 26.94 28.06 26.47 23.80 22.63 21.00 20.82 20.75 23.43 30.77 30.95 24.36 27.46 23.51 17.39 21.26 29.56 31.21 30.21 27.49 27.12 19.84 17.81 22.38 22.09 23.43 35.77 35.68 36.46 37.31 38.32 39.31 39.46 40.07
33.00 31.32 37.00 35.85 25.33 22.23 18.84 21.48 25.00 25.60 26.94 26.13 25.38 28.00 28.00 24.26 19.90 22.51 23.91 28.95 29.45 29.37 25.75 26.74 21.08 15.43 18.44 24.25 29.81 26.74 28.10 28.58 27.84 26.56 20.99 18.13 21.76 36.26 36.26 36.27 37.80 37.23 38.28 38.36 37.89
32.85 27.96 29.73 28.46 21.01 23.29 18.39 19.88 21.17 27.69 26.87 28.36 26.81 27.43 26.14 23.19 26.27 22.14 23.02 27.57 30.48 30.03 31.44 30.00 23.55 18.62 14.76 19.11 21.61 19.34 22.22 24.50 23.14 19.23 20.62 22.73 25.10 30.52 33.51 34.28 36.64 38.13 37.36 37.38 37.38
31.81 28.37 25.15 24.44 23.86 21.74 20.80 20.36 20.41 21.83 26.15 28.03 25.66 25.24 23.61 18.72 21.17 21.74 25.04 26.44 28.86 30.10 29.59 28.05 19.16 20.04 21.97 22.95 22.67 21.05 20.04 21.16 20.32 22.21 19.21 23.92 24.76 30.52 33.85 35.37 37.29 39.11 37.53 35.07 34.32
29.46 26.80 23.95 17.68 22.19 21.87 21.86 21.28 21.41 22.56 23.80 22.50 23.52 25.39 26.12 21.00 23.38 21.17 23.88 24.64 23.43 26.87 25.99 26.91 19.28 19.43 16.08 21.03 21.40 19.14 21.67 22.30 23.80 24.20 23.11 24.90 25.13 34.36 36.22 36.92 35.85 37.03 36.37 34.58 34.60
31.53 30.61 31.16 23.79 21.86 20.06 21.70 22.57 22.28 24.84 26.83 27.49 26.97 25.06 23.70 26.02 29.15 29.84 29.93 29.10 27.93 25.24 24.26 23.80 21.39 17.52 13.17 18.93 18.78 14.48 19.61 21.35 24.68 27.13 26.56 21.55 29.13 34.72 33.86 34.40 34.89 36.27 36.21 35.72 35.15
MSLP
1028.01 1027.83 1027.53 1027.17 1026.75 1026.91 1026.81 1026.26 1025.85 1025.52 1025.37 1024.95 1024.50 1024.26 1023.87 1023.34 1022.74 1022.07 1022.42 1022.94 1022.17 1021.32 1020.68 1019.54 1018.82 1018.22 1017.77 1016.91 1016.75 1016.39 1014.82 1013.34 1012.98 1012.98 1012.42 1013.02 1012.88 1013.13 1013.31 1013.06 1013.40 1013.78 1014.04 1014.94 1015.85
1028.18 1028.08 1027.70 1027.45 1027.41 1027.46 1027.11 1026.48 1026.09 1025.68 1025.48 1025.11 1024.81 1024.28 1023.98 1023.43 1022.96 1022.74 1023.32 1022.54 1021.88 1021.40 1020.33 1019.62 1019.00 1018.65 1017.56 1016.91 1016.41 1015.91 1014.52 1013.13 1012.97 1012.81 1012.63 1012.86 1013.05 1013.02 1013.11 1012.98 1013.22 1013.92 1014.94 1015.46 1016.44
1028.72 1028.11 1028.13 1028.00 1027.80 1027.54 1027.21 1026.74 1026.42 1026.18 1025.82 1025.32 1024.71 1024.15 1023.85 1023.66 1023.10 1023.39 1023.39 1022.62 1021.90 1021.19 1020.62 1020.10 1019.61 1019.03 1018.06 1017.30 1016.31 1015.65 1014.56 1013.62 1013.64 1013.24 1013.15 1013.02 1013.10 1013.15 1012.87 1012.53 1012.38 1013.00 1014.54 1015.89 1016.55
1028.68 1028.53 1028.42 1028.60 1028.54 1027.91 1027.53 1027.07 1026.75 1026.41 1026.01 1025.48 1024.91 1024.31 1023.70 1023.35 1023.78 1023.65 1023.38 1022.71 1021.78 1021.11 1020.44 1019.61 1019.19 1018.73 1018.18 1017.39 1016.69 1016.01 1015.28 1014.82 1013.88 1013.79 1013.74 1013.23 1013.10 1012.92 1012.78 1012.43 1012.90 1013.33 1014.15 1015.55 1016.08
1029.07 1028.98 1028.90 1028.62 1028.12 1027.71 1027.55 1027.02 1026.62 1026.60 1026.12 1025.61 1025.04 1024.71 1023.81 1023.40 1023.97 1023.90 1023.57 1022.96 1022.09 1021.45 1020.94 1020.36 1019.90 1019.70 1018.75 1018.65 1017.81 1016.75 1015.55 1015.20 1014.70 1014.28 1013.88 1013.69 1013.09 1012.78 1012.52 1012.53 1013.02 1013.54 1014.18 1014.89 1015.66
1029.56 1029.34 1029.02 1028.42 1028.07 1027.89 1026.74 1027.33 1026.76 1026.07 1026.16 1025.80 1025.16 1024.84 1024.49 1024.47 1024.44 1024.17 1023.86 1022.77 1022.43 1022.02 1021.61 1021.04 1020.74 1020.40 1019.79 1019.22 1018.70 1018.03 1016.77 1015.59 1015.00 1014.51 1014.26 1013.75 1013.14 1013.22 1012.30 1012.40 1012.74 1013.21 1013.55 1014.15 1014.67
1029.38 1029.12 1028.78 1028.50 1028.24 1027.54 1026.81 1026.47 1026.43 1026.26 1026.15 1025.81 1025.37 1025.22 1024.51 1024.75 1024.34 1024.17 1023.92 1023.23 1022.82 1022.39 1021.97 1021.50 1021.06 1020.40 1020.24 1019.49 1019.33 1018.48 1017.30 1015.82 1015.08 1014.80 1014.29 1014.03 1012.83 1012.47 1011.96 1012.36 1012.28 1012.47 1012.82 1013.50 1014.01
1029.50 1029.28 1028.93 1028.59 1028.20 1027.55 1026.86 1026.57 1026.66 1026.44 1025.90 1025.96 1025.71 1025.35 1025.05 1024.60 1024.49 1024.05 1023.69 1023.00 1022.71 1022.51 1022.28 1021.82 1021.34 1020.83 1020.14 1019.82 1019.13 1018.33 1017.70 1015.95 1014.65 1014.81 1014.29 1014.17 1011.46 1011.59 1011.80 1011.93 1011.72 1011.66 1011.99 1012.75 1013.23
1029.52 1029.22 1029.02 1028.51 1028.13 1027.71 1027.18 1026.78 1026.41 1026.31 1026.21 1025.74 1025.52 1025.21 1024.98 1024.63 1024.84 1024.45 1024.39 1023.73 1022.92 1022.64 1022.22 1021.86 1021.37 1020.92 1020.39 1019.67 1019.26 1018.39 1016.76 1016.28 1015.26 1015.14 1014.42 1013.82 1012.14 1011.33 1011.14 1011.37 1011.18 1011.17 1011.16 1011.58 1012.21
1029.58 1029.40 1029.15 1028.91 1028.39 1027.73 1027.10 1026.88 1026.79 1026.33 1026.12 1025.57 1025.81 1025.72 1025.85 1026.00 1025.57 1025.20 1024.34 1024.10 1023.58 1022.66 1022.42 1022.01 1021.58 1021.10 1020.58 1019.87 1018.24 1017.96 1017.85 1017.18 1016.01 1016.02 1015.41 1014.07 1012.67 1011.47 1011.34 1010.80 1010.59 1010.61 1010.57 1010.74 1011.23
1029.71 1029.57 1029.29 1028.93 1028.59 1027.85 1027.13 1026.88 1027.08 1026.87 1027.31 1028.02 1028.18 1027.96 1027.12 1026.42 1025.71 1025.38 1024.66 1024.17 1023.86 1023.20 1022.90 1022.97 1022.09 1021.05 1020.78 1020.45 1020.03 1019.55 1018.99 1018.17 1017.76 1017.30 1016.82 1014.98 1013.55 1012.26 1011.50 1011.01 1010.53 1010.18 1010.14 1010.06 1010.20
1029.66 1029.54 1029.39 1029.20 1029.04 1028.67 1028.16 1028.67 1029.77 1030.02 1029.06 1028.62 1028.41 1028.06 1027.52 1027.21 1026.34 1025.36 1024.94 1024.70 1024.33 1023.75 1023.58 1023.36 1022.58 1022.57 1022.10 1021.74 1021.26 1020.62 1019.66 1018.92 1018.57 1018.10 1017.24 1015.83 1013.92 1013.13 1011.79 1010.89 1010.28 1010.00 1009.85 1009.89 1009.94
1029.36 1029.24 1029.10 1028.98 1028.96 1029.07 1029.30 1030.10 1030.19 1030.02 1029.49 1029.01 1028.63 1028.11 1027.49 1027.37 1026.48 1025.74 1025.68 1025.35 1025.08 1024.54 1024.20 1023.75 1023.69 1023.50 1022.77 1022.26 1021.79 1021.06 1020.63 1019.74 1019.88 1018.81 1017.30 1016.45 1013.20 1012.38 1011.29 1011.18 1010.45 1009.78 1009.62 1009.37 1009.42
1029.26 1029.31 1029.26 1029.03 1029.26 1029.69 1029.80 1030.35 1030.38 1030.08 1029.72 1029.76 1028.65 1028.10 1027.56 1027.23 1026.76 1026.42 1026.21 1026.23 1025.56 1025.54 1024.98 1024.45 1024.37 1023.92 1023.38 1022.81 1022.52 1021.48 1021.12 1020.54 1020.36 1019.74 1017.53 1016.45 1011.67 1010.12 1009.88 1009.45 1009.52 1009.11 1009.18 1009.08 1009.01
1029.28 1029.42 1029.55 1029.02 1029.66 1030.01 1030.54 1030.34 1030.45 1030.27 1030.29 1029.93 1028.95 1028.33 1027.99 1027.90 1027.41 1026.49 1026.40 1026.06 1026.04 1026.03 1025.99 1024.81 1024.58 1024.25 1023.67 1023.19 1022.92 1022.26 1021.97 1021.29 1020.90 1020.13 1019.02 1016.91 1014.89 1009.06 1010.52 1008.79 1008.26 1008.27 1008.39 1008.60 1008.53
1029.11 1029.34 1029.68 1029.86 1030.03 1030.58 1030.72 1030.57 1030.43 1030.51 1030.86 1030.50 1029.67 1029.12 1028.71 1028.13 1027.80 1027.20 1026.75 1026.66 1026.64 1026.43 1026.07 1025.41 1025.01 1024.77 1024.01 1023.36 1023.23 1022.96 1022.57 1021.83 1021.30 1020.57 1018.34 1016.06 1014.75 1008.85 1009.11 1008.65 1008.04 1007.76 1007.75 1007.83 1007.95
1029.08 1029.49 1029.60 1030.24 1030.47 1030.60 1030.80 1030.56 1030.59 1031.14 1032.09 1031.03 1030.36 1030.00 1029.70 1029.06 1028.40 1027.98 1027.49 1027.15 1027.01 1026.95 1026.22 1025.45 1024.94 1024.54 1024.37 1023.66 1023.47 1023.20 1022.60 1021.64 1021.11 1019.96 1016.50 1014.67 1013.95 1009.72 1009.50 1009.22 1008.69 1008.40 1008.17 1007.97 1007.79
1029.33 1029.64 1030.43 1030.69 1030.93 1030.59 1030.66 1030.65 1030.92 1032.02 1031.73 1031.16 1030.88 1030.36 1030.33 1030.24 1029.31 1028.88 1028.30 1027.88 1027.95 1027.76 1027.05 1026.10 1024.81 1024.37 1024.26 1023.41 1022.78 1022.60 1022.09 1020.93 1019.83 1018.38 1015.74 1015.03 1012.42 1010.27 1009.91 1008.91 1008.92 1009.14 1008.58 1008.78 1008.35
1029.32 1030.29 1030.48 1030.85 1030.99 1030.75 1030.51 1030.79 1031.14 1031.74 1031.47 1031.28 1030.91 1030.90 1030.85 1030.96 1030.74 1029.72 1029.08 1028.64 1028.41 1028.33 1028.02 1027.02 1025.31 1024.10 1023.79 1023.32 1023.26 1022.41 1021.94 1021.09 1020.86 1019.39 1017.35 1014.14 1011.98 1010.76 1010.37 1009.82 1009.87 1009.48 1009.50 1009.11 1009.22
1029.51 1030.40 1031.04 1031.08 1030.99 1030.82 1030.89 1031.26 1031.40 1031.28 1031.34 1031.38 1031.16 1031.45 1031.29 1031.10 1031.10 1030.56 1029.70 1029.00 1028.67 1028.66 1028.52 1027.93 1026.47 1024.44 1023.67 1023.49 1022.98 1022.31 1022.02 1021.80 1021.38 1019.54 1017.06 1013.74 1012.11 1010.53 1010.34 1010.31 1009.77 1010.07 1010.19 1010.08 1010.45
1029.68 1030.68 1031.44 1031.26 1031.03 1031.37 1031.78 1031.96 1031.74 1031.43 1031.22 1031.33 1031.05 1031.18 1031.30 1031.19 1031.20 1030.87 1029.94 1029.20 1028.81 1028.47 1028.39 1028.25 1027.54 1025.06 1024.33 1023.05 1022.00 1022.47 1022.26 1021.95 1021.34 1019.80 1017.53 1014.69 1011.72 1011.24 1011.33 1011.41 1011.54 1011.44 1011.43 1011.45 1011.57
1029.94 1031.07 1031.74 1031.54 1031.86 1032.90 1032.60 1032.32 1031.78 1031.21 1031.38 1031.27 1031.19 1030.82 1030.84 1030.91 1030.76 1030.54 1029.81 1028.96 1028.26 1028.26 1028.10 1027.92 1027.41 1025.65 1023.88 1022.60 1022.42 1022.14 1021.62 1021.39 1020.80 1019.64 1018.15 1016.07 1012.98 1012.34 1011.84 1012.30 1012.28 1012.36 1012.34 1012.62 1012.86
1030.15 1031.35 1031.76 1031.80 1032.25 1032.92 1033.21 1032.79 1032.13 1031.22 1030.97 1031.00 1030.80 1030.51 1030.35 1030.54 1030.50 1029.61 1029.00 1028.04 1028.10 1028.08 1027.79 1027.81 1027.35 1025.98 1023.67 1023.27 1022.83 1022.56 1022.04 1021.69 1020.86 1019.97 1018.27 1016.66 1013.61 1012.25 1011.91 1012.02 1012.16 1012.45 1012.90 1013.55 1013.68
1030.33 1031.63 1032.39 1032.52 1033.34 1032.50 1032.90 1032.43 1031.83 1031.04 1030.60 1030.38 1030.26 1030.49 1030.36 1030.08 1029.80 1028.92 1028.30 1027.62 1027.43 1027.53 1027.46 1027.62 1027.05 1026.34 1024.81 1023.87 1024.28 1023.31 1022.49 1022.16 1022.05 1020.44 1018.33 1016.30 1014.14 1012.67 1011.69 1011.89 1011.61 1012.04 1012.90 1013.73 1013.94
1029.91 1030.88 1032.03 1032.68 1032.79 1032.77 1032.48 1032.06 1031.15 1030.84 1030.45 1030.23 1029.77 1029.68 1029.83 1029.59 1029.10 1028.41 1027.55 1027.18 1026.83 1026.79 1027.13 1027.33 1026.69 1026.34 1025.24 1024.71 1024.30 1023.21 1022.09 1021.07 1021.39 1019.53 1018.80 1015.61 1014.57 1012.18 1011.77 1011.72 1011.41 1011.39 1012.75 1013.56 1014.07
1029.35 1030.51 1031.92 1032.44 1032.42 1032.43 1032.32 1031.43 1030.38 1029.86 1029.63 1029.36 1029.24 1028.60 1029.02 1028.88 1027.99 1027.45 1027.24 1026.83 1026.41 1026.40 1026.71 1027.22 1026.61 1026.47 1025.53 1024.63 1023.51 1022.13 1020.50 1019.90 1019.16 1018.04 1017.61 1015.71 1014.30 1011.07 1012.03 1011.83 1011.78 1011.81 1012.51 1013.31 1013.94
1029.41 1029.62 1029.72 1031.70 1032.06 1032.09 1031.07 1030.01 1029.67 1029.23 1028.41 1027.98 1028.18 1028.36 1028.05 1027.46 1027.30 1026.87 1026.78 1026.61 1026.42 1026.32 1026.48 1026.86 1026.77 1026.49 1024.89 1024.40 1023.25 1020.81 1018.09 1017.66 1016.65 1015.90 1015.37 1014.77 1011.95 1011.78 1011.58 1011.54 1011.91 1012.32 1012.90 1013.32 1013.94
Wind_Speed
15 15 15 15 16 15 15 16 18 18 19 20 21 20 19 19 12 9 9 12 12 18 16 11 3 6 4 3 2 2 8 11 13 10 7 5 6 3 1 3 3 2 2 3 19
15 15 16 16 14 13 12 14 16 18 19 20 21 21 20 16 2 9 11 18 18 18 11 10 5 8 4 5 6 8 11 17 8 12 6 5 4 2 4 7 7 6 6 11 18
14 16 16 16 15 15 15 14 14 15 17 18 20 22 20 9 3 5 18 18 17 17 8 4 5 2 5 4 8 7 14 16 9 8 7 6 5 3 5 7 7 10 12 14 16
13 13 14 14 14 15 14 15 14 15 16 17 17 17 20 2 5 6 18 16 12 12 7 5 2 3 4 9 5 8 12 11 10 7 6 7 3 5 8 2 3 3 11 16 19
11 11 12 13 14 16 15 15 16 15 16 15 13 13 6 3 3 8 16 10 7 9 7 5 4 2 6 4 4 11 10 7 11 5 9 3 9 8 9 6 4 2 10 16 17
11 11 13 14 15 16 17 17 16 16 15 11 9 8 1 1 6 8 12 9 11 8 6 4 2 2 2 3 5 5 9 9 6 12 7 8 12 6 9 7 8 7 10 14 17
11 13 14 15 16 18 19 18 17 15 9 8 5 4 2 4 6 10 9 8 6 5 4 4 2 1 1 3 5 5 9 8 13 8 9 8 20 14 19 8 8 8 8 12 15
11 12 13 15 16 19 19 19 8 8 5 3 5 2 3 4 7 9 13 6 8 5 6 6 4 3 3 4 4 5 6 13 10 13 8 13 24 22 21 17 20 18 11 10 15
11 12 14 15 17 19 20 11 8 4 7 4 3 4 4 7 9 13 6 10 13 5 2 4 3 2 3 5 6 7 12 18 13 8 10 18 19 21 18 19 22 22 18 14 12
10 11 13 15 15 18 18 3 7 5 6 1 3 2 7 8 8 11 8 7 5 10 1 1 1 4 4 6 10 11 10 10 12 1 8 15 20 18 8 19 21 22 22 18 16
7 8 11 13 13 17 10 2 5 3 10 5 6 3 6 12 4 6 6 9 4 3 4 4 4 5 4 6 10 9 8 9 7 8 13 13 19 23 21 16 14 20 19 19 19
8 7 7 9 7 13 5 7 3 1 3 3 5 6 6 4 5 8 9 6 6 5 5 2 5 2 2 5 6 10 13 15 13 14 12 16 21 19 22 22 23 20 18 20 19
7 8 6 8 5 4 10 5 2 5 3 3 4 5 5 4 5 6 9 4 5 5 6 5 4 4 8 5 7 11 14 10 7 12 17 17 29 28 25 23 22 23 23 21 19
5 4 5 7 1 2 4 2 2 3 3 10 5 3 5 6 2 3 3 4 2 5 6 5 3 3 4 5 7 9 6 13 12 6 7 9 15 15 21 29 28 24 22 23 21
2 5 7 7 2 3 3 1 1 2 4 11 6 6 11 4 7 3 2 2 5 6 4 3 3 6 8 5 4 4 6 3 8 12 10 16 12 13 19 19 21 26 25 23 23
7 9 5 3 2 3 4 1 1 1 3 5 4 8 11 3 4 6 3 1 2 5 6 12 6 6 11 6 5 1 4 6 7 8 14 19 16 12 17 13 13 17 22 24 24
11 7 5 1 2 4 3 2 2 4 3 5 4 6 9 5 4 5 7 6 5 6 4 7 6 3 9 7 6 5 4 4 6 8 12 10 16 19 10 9 6 5 9 16 20
14 7 7 3 3 0 0 1 5 1 5 3 4 6 4 6 2 6 5 5 3 2 5 6 3 4 7 9 4 12 13 6 8 8 9 16 13 7 2 12 11 12 14 9 12
13 2 2 4 4 1 1 3 4 6 2 3 5 3 2 2 5 6 4 3 1 3 3 5 6 6 9 6 7 5 12 17 12 15 7 7 20 17 9 10 8 7 7 12 5
4 2 2 6 4 2 2 2 4 4 3 3 3 2 3 3 4 4 3 3 3 4 1 2 9 6 3 4 10 13 3 5 8 7 10 9 17 12 3 14 17 9 9 6 4
3 2 2 5 2 3 2 4 5 6 5 6 4 3 7 3 3 3 3 3 4 4 5 3 5 4 4 6 8 6 6 8 5 6 8 8 8 2 2 6 10 10 6 6 4
3 1 3 2 2 1 2 5 3 4 3 5 4 7 6 6 4 4 6 6 7 3 4 5 4 7 12 13 5 6 15 15 9 11 11 13 18 2 4 5 7 12 8 3 0
3 2 1 2 3 3 2 4 4 6 6 6 6 9 6 5 5 8 6 4 8 7 4 3 4 7 7 3 2 5 6 12 17 15 17 16 16 8 7 14 10 7 5 5 4
3 2 1 3 2 3 4 3 4 6 3 5 4 2 5 7 11 6 6 5 6 9 8 4 7 10 11 8 4 12 15 17 12 10 14 17 26 24 25 23 22 12 6 6 6
1 2 1 4 5 3 2 3 3 4 4 6 4 11 9 5 4 10 12 12 10 9 6 5 7 9 16 19 18 21 22 22 17 23 16 24 22 24 21 15 17 14 8 8 9
5 5 2 3 3 6 4 5 8 4 7 6 9 4 12 8 11 12 9 10 11 4 7 5 9 4 12 19 21 24 24 21 22 25 21 27 26 30 19 20 17 12 10 12 11
1 2 2 7 5 4 6 6 7 6 8 6 10 4 10 19 18 17 16 17 17 10 10 7 5 4 11 8 15 14 17 20 19 21 20 18 29 13 15 13 9 10 12 12 12
Wind_Direction
45 42 38 32 24 14 7 8 7 6 1 356 353 355 354 348 330 41 37 337 327 332 320 321 300 334 254 210 210 257 229 229 223 206 208 163 223 155 338 229 191 142 22 51 139
39 35 33 28 23 13 7 8 5 359 354 350 347 345 349 345 341 54 350 337 333 338 342 350 341 336 220 206 175 225 229 232 228 218 207 181 232 182 231 196 198 169 93 132 148
35 31 26 22 13 6 5 6 360 352 346 345 342 338 342 330 184 24 342 340 333 333 321 293 290 268 236 228 183 187 233 234 231 213 209 212 215 194 235 226 216 206 157 160 166
28 24 19 12 3 3 357 353 347 343 340 339 337 337 335 290 305 357 339 340 339 334 349 357 342 216 228 213 219 220 232 242 242 203 193 212 199 212 223 281 76 108 159 166 178
31 23 13 4 2 358 350 345 343 335 335 333 339 347 350 10 20 334 334 344 355 354 21 12 49 322 223 281 277 236 218 245 243 230 218 180 214 232 226 209 198 142 174 185 188
23 12 7 6 1 349 350 335 334 338 333 334 350 344 336 268 339 330 334 339 7 8 8 29 47 29 298 282 284 334 282 265 282 230 223 213 231 207 222 233 225 205 198 201 197
13 9 4 2 352 345 343 340 334 334 337 337 34 0 6 43 334 325 341 321 342 354 347 326 323 282 344 256 340 291 281 245 231 231 231 213 241 229 238 204 212 212 209 207 208
11 7 5 359 352 344 339 336 348 348 12 43 20 328 68 335 318 344 337 337 340 303 314 291 301 292 252 318 286 251 234 238 201 204 216 207 242 224 232 229 239 238 222 208 212
10 10 1 360 356 343 338 344 7 18 17 15 345 353 57 339 353 332 337 326 323 327 325 267 264 262 205 225 235 221 247 229 239 215 229 212 242 237 230 229 238 241 232 225 219
7 4 357 354 358 348 341 20 35 34 349 129 60 263 35 328 324 315 318 323 321 331 290 34 189 216 211 209 229 226 223 222 224 152 271 248 243 249 237 228 233 237 238 228 228
344 347 350 354 1 358 351 341 359 39 33 35 324 304 294 321 288 339 343 326 328 52 7 14 230 230 257 264 294 285 259 255 269 278 321 268 257 249 248 234 236 242 239 237 225
326 324 336 349 16 13 21 66 62 82 13 332 294 278 271 308 310 344 349 7 5 39 341 278 281 68 311 268 276 263 261 256 269 276 276 273 270 265 259 252 245 239 235 236 237
331 326 335 347 15 48 66 62 214 189 64 348 315 304 317 319 337 330 351 346 5 5 5 314 13 283 318 280 251 247 256 256 289 306 271 275 276 260 257 249 249 246 245 241 236
321 350 350 342 18 346 56 24 141 210 86 356 350 20 317 308 259 318 348 339 336 336 335 296 332 310 315 286 245 264 251 248 264 285 265 194 277 250 229 239 238 238 236 237 235
314 104 53 42 96 23 19 37 167 243 34 343 312 326 323 329 329 52 335 292 307 317 298 355 271 273 273 256 205 277 325 272 254 257 293 247 262 256 241 253 241 233 233 235 234
151 133 110 52 59 18 332 48 227 20 358 337 312 347 346 352 353 309 328 255 278 284 242 264 288 268 248 261 223 271 279 241 255 260 249 235 230 262 233 248 259 234 238 234 231
138 105 83 44 63 350 337 299 56 73 37 320 324 342 330 318 324 350 334 334 338 321 337 303 231 247 229 246 196 205 202 221 208 205 244 198 212 252 286 295 261 287 278 257 236
130 103 68 60 344 335 204 58 72 74 244 352 299 324 316 348 322 325 324 342 56 300 290 327 308 194 173 235 278 211 210 218 234 210 257 206 231 231 327 248 268 288 269 273 257
123 69 77 20 348 284 113 66 192 198 183 260 301 316 301 298 316 329 345 290 271 359 353 313 263 303 230 224 227 179 214 243 291 281 261 231 245 264 262 278 264 271 275 255 257
102 89 49 342 350 33 76 229 196 190 184 202 249 258 271 298 316 330 319 192 204 178 306 317 287 273 308 201 234 243 359 206 205 244 247 227 244 247 225 237 249 245 259 260 305
77 110 50 357 4 43 211 223 233 225 202 211 224 225 242 274 227 266 278 259 240 202 208 212 235 270 297 221 254 183 216 222 290 255 270 263 240 123 8 6 321 310 322 325 320
115 159 9 292 76 355 207 192 213 210 170 245 258 239 228 191 236 246 247 242 192 218 257 197 292 278 265 269 284 280 255 235 235 241 238 265 265 272 187 1 332 318 327 311 232
111 107 73 272 193 195 297 266 262 196 201 186 234 222 211 223 246 218 223 256 229 215 232 181 250 299 287 170 162 249 274 265 261 261 251 255 259 254 299 295 304 312 307 287 218
136 159 45 73 354 144 181 213 255 218 232 196 230 208 200 242 232 259 231 257 207 220 224 214 231 230 258 295 321 287 282 276 278 283 280 258 266 266 272 278 288 277 240 224 218
47 179 25 190 204 163 177 180 196 239 215 219 229 209 197 228 231 235 251 256 247 238 229 223 250 241 256 269 273 267 266 268 251 251 255 271 272 273 271 290 284 287 222 201 199
152 156 112 119 145 144 186 222 209 220 184 217 232 223 208 225 214 271 258 257 261 223 210 194 261 254 282 274 263 266 264 262 258 257 248 251 267 261 279 273 266 250 220 206 195
141 92 185 154 168 157 214 214 217 176 229 214 217 239 231 241 252 256 265 273 268 246 227 235 253 265 281 318 314 273 249 245 250 239 230 233 238 277 270 281 269 241 224 218 196